When you browse on this site, cookies collect data to enhance your experience and personalize the content and advertising you see.
Visit our Privacy Policy to learn more. By continuing to use the site, you agree to this use of cookies and data.
  • In Czech Republic
  • List of Countries
  • For 7 days
  • Water Temperature
  • Satellite Maps
  • Weather Map
  • Weather Widgets
  • user-avatar
    Login

    Hourly Weather Maripasoula

    Today, 17 December, Monday

    Time Temperature Precipitation Wind Pressure Humidity
    00:00 +21°C° 0 mm 0 mps 748 mmHg 99%
    01:00 +21°C° 0 mm 0 mps 748 mmHg 99%
    02:00 +21°C° 0 mm 0 mps 748 mmHg 99%
    03:00 +21°C° 0 mm 0 mps 748 mmHg 99%
    04:00 +21°C° 0 mm 0 mps 748 mmHg 99%
    05:00 +21°C° 0 mm 0 mps 748 mmHg 99%
    06:00 +22°C° 0 mm 0 mps 748 mmHg 98%
    07:00 +24°C° 0 mm 1 mps 749 mmHg 97%
    08:00 +25°C° 0 mm 1 mps 749 mmHg 96%
    09:00 +26°C° 0.3 mm 1 mps 749 mmHg 90%
    10:00 +27°C° 0.3 mm 1 mps 749 mmHg 85%
    11:00 +29°C° 0.3 mm 1 mps 749 mmHg 80%
    12:00 +29°C° 1.2 mm 1 mps 748 mmHg 82%
    13:00 +29°C° 1.2 mm 1 mps 747 mmHg 84%
    14:00 +29°C° 1.2 mm 1 mps 747 mmHg 87%
    15:00 +28°C° 2 mm 1 mps 747 mmHg 90%
    16:00 +27°C° 2 mm 1 mps 747 mmHg 93%
    17:00 +26°C° 2 mm 1 mps 746 mmHg 97%
    18:00 +26°C° 2.2 mm 1 mps 747 mmHg 97%
    19:00 +25°C° 2.2 mm 1 mps 747 mmHg 98%
    20:00 +24°C° 2.2 mm 1 mps 748 mmHg 99%
    21:00 +24°C° 0.5 mm 1 mps 748 mmHg 99%
    22:00 +24°C° 0.5 mm 1 mps 748 mmHg 99%
    23:00 +24°C° 0.5 mm 1 mps 749 mmHg 99%

    Tomorrow, 18 December, Tuesday

    Time Temperature Precipitation Wind Pressure Humidity
    00:00 +24°C° 0.1 mm 1 mps 748 mmHg 99%
    01:00 +22°C° 0.1 mm 0 mps 748 mmHg 99%
    02:00 +22°C° 0.1 mm 0 mps 747 mmHg 99%
    03:00 +22°C° 0 mm 0 mps 747 mmHg 99%
    04:00 +22°C° 0 mm 0 mps 747 mmHg 99%
    05:00 +22°C° 0 mm 0 mps 747 mmHg 99%
    06:00 +25°C° 0 mm 1 mps 748 mmHg 97%
    07:00 +25°C° 0 mm 1 mps 749 mmHg 95%
    08:00 +26°C° 0 mm 1 mps 749 mmHg 93%
    09:00 +27°C° 0.3 mm 1 mps 749 mmHg 86%
    10:00 +29°C° 0.3 mm 1 mps 749 mmHg 79%
    11:00 +30°C° 0.3 mm 1 mps 749 mmHg 72%
    12:00 +30°C° 1.1 mm 1 mps 748 mmHg 79%
    13:00 +29°C° 1.1 mm 1 mps 747 mmHg 86%
    14:00 +29°C° 1.1 mm 1 mps 746 mmHg 93%
    15:00 +28°C° 0.8 mm 1 mps 746 mmHg 94%
    16:00 +27°C° 0.8 mm 1 mps 746 mmHg 95%
    17:00 +27°C° 0.8 mm 1 mps 746 mmHg 97%
    18:00 +26°C° 0.7 mm 1 mps 747 mmHg 98%
    19:00 +25°C° 0.7 mm 1 mps 747 mmHg 98%
    20:00 +25°C° 0.7 mm 1 mps 748 mmHg 99%
    21:00 +24°C° 0 mm 1 mps 748 mmHg 99%
    22:00 +24°C° 0 mm 1 mps 748 mmHg 99%
    23:00 +22°C° 0 mm 0 mps 749 mmHg 99%

    Day after tomorrow, 19 December, Wednesday

    Time Temperature Precipitation Wind Pressure Humidity
    00:00 +22°C° 0 mm 0 mps 748 mmHg 99%
    01:00 +22°C° 0 mm 0 mps 748 mmHg 99%
    02:00 +22°C° 0 mm 0 mps 747 mmHg 99%
    03:00 +22°C° 0.1 mm 0 mps 747 mmHg 99%
    04:00 +22°C° 0.1 mm 0 mps 747 mmHg 99%
    05:00 +22°C° 0.1 mm 0 mps 747 mmHg 99%
    06:00 +25°C° 0.1 mm 1 mps 748 mmHg 97%
    07:00 +26°C° 0.1 mm 1 mps 748 mmHg 95%
    08:00 +26°C° 0.1 mm 1 mps 749 mmHg 93%
    09:00 +27°C° 0.3 mm 2 mps 749 mmHg 88%
    10:00 +28°C° 0.3 mm 2 mps 749 mmHg 83%
    11:00 +29°C° 0.3 mm 2 mps 748 mmHg 78%
    12:00 +29°C° 1 mm 2 mps 748 mmHg 83%
    13:00 +28°C° 1 mm 1 mps 747 mmHg 89%
    14:00 +28°C° 1 mm 1 mps 746 mmHg 94%
    15:00 +27°C° 0.7 mm 1 mps 746 mmHg 95%
    16:00 +27°C° 0.7 mm 1 mps 745 mmHg 96%
    17:00 +26°C° 0.7 mm 1 mps 745 mmHg 97%
    18:00 +26°C° 0.5 mm 1 mps 746 mmHg 98%
    19:00 +25°C° 0.5 mm 1 mps 747 mmHg 98%
    20:00 +25°C° 0.5 mm 1 mps 747 mmHg 99%
    21:00 +24°C° 0 mm 1 mps 747 mmHg 99%
    22:00 +24°C° 0 mm 1 mps 747 mmHg 99%
    23:00 +24°C° 0 mm 1 mps 747 mmHg 99%

    20 December, Thursday

    Time Temperature Precipitation Wind Pressure Humidity
    00:00 +24°C° 0 mm 1 mps 747 mmHg 99%
    01:00 +24°C° 0 mm 1 mps 746 mmHg 99%
    02:00 +24°C° 0 mm 1 mps 746 mmHg 99%
    03:00 +24°C° 0.1 mm 1 mps 746 mmHg 99%
    04:00 +24°C° 0.1 mm 1 mps 746 mmHg 99%
    05:00 +24°C° 0.1 mm 1 mps 746 mmHg 99%
    06:00 +25°C° 0.1 mm 1 mps 747 mmHg 97%
    07:00 +25°C° 0.1 mm 1 mps 748 mmHg 95%
    08:00 +26°C° 0.1 mm 2 mps 748 mmHg 94%
    09:00 +27°C° 0.4 mm 2 mps 748 mmHg 90%
    10:00 +28°C° 0.4 mm 2 mps 748 mmHg 86%
    11:00 +29°C° 0.4 mm 2 mps 748 mmHg 82%
    12:00 +29°C° 0.9 mm 2 mps 747 mmHg 85%
    13:00 +28°C° 0.9 mm 2 mps 746 mmHg 87%
    14:00 +28°C° 0.9 mm 2 mps 745 mmHg 90%
    15:00 +27°C° 0.6 mm 2 mps 745 mmHg 93%
    16:00 +27°C° 0.6 mm 1 mps 745 mmHg 95%
    17:00 +26°C° 0.6 mm 1 mps 745 mmHg 97%
    18:00 +25°C° 0.1 mm 1 mps 746 mmHg 98%
    19:00 +25°C° 0.1 mm 1 mps 746 mmHg 98%
    20:00 +24°C° 0.1 mm 1 mps 747 mmHg 99%
    21:00 +24°C° 0 mm 1 mps 747 mmHg 99%
    22:00 +24°C° 0 mm 1 mps 747 mmHg 99%
    23:00 +23°C° 0 mm 1 mps 747 mmHg 99%

    21 December, Friday

    Time Temperature Precipitation Wind Pressure Humidity
    00:00 +23°C° 0 mm 1 mps 747 mmHg 99%
    01:00 +23°C° 0 mm 1 mps 746 mmHg 99%
    02:00 +21°C° 0 mm 0 mps 746 mmHg 99%
    03:00 +20°C° 0 mm 0 mps 746 mmHg 99%
    04:00 +20°C° 0 mm 0 mps 746 mmHg 99%
    05:00 +20°C° 0 mm 0 mps 746 mmHg 99%
    06:00 +23°C° 0 mm 1 mps 747 mmHg 96%
    07:00 +25°C° 0 mm 1 mps 747 mmHg 93%
    08:00 +26°C° 0 mm 2 mps 748 mmHg 90%
    09:00 +27°C° 0 mm 2 mps 748 mmHg 80%
    10:00 +29°C° 0 mm 2 mps 747 mmHg 71%
    11:00 +30°C° 0 mm 2 mps 747 mmHg 61%
    12:00 +31°C° 0 mm 2 mps 747 mmHg 61%
    13:00 +31°C° 0 mm 2 mps 746 mmHg 61%
    14:00 +31°C° 0 mm 1 mps 745 mmHg 61%
    15:00 +30°C° 0 mm 1 mps 745 mmHg 66%
    16:00 +29°C° 0 mm 1 mps 745 mmHg 71%
    17:00 +28°C° 0 mm 1 mps 745 mmHg 76%
    18:00 +27°C° 0 mm 1 mps 745 mmHg 79%
    19:00 +26°C° 0 mm 1 mps 746 mmHg 83%
    20:00 +25°C° 0 mm 1 mps 747 mmHg 87%
    21:00 +24°C° 0 mm 1 mps 747 mmHg 90%
    22:00 +24°C° 0 mm 1 mps 747 mmHg 92%
    23:00 +23°C° 0 mm 1 mps 747 mmHg 95%

    22 December, Saturday

    Time Temperature Precipitation Wind Pressure Humidity
    00:00 +23°C° 0 mm 1 mps 746 mmHg 96%
    01:00 +21°C° 0 mm 0 mps 746 mmHg 98%
    02:00 +20°C° 0 mm 0 mps 746 mmHg 99%
    03:00 +20°C° 0 mm 0 mps 746 mmHg 99%
    04:00 +20°C° 0 mm 0 mps 746 mmHg 99%
    05:00 +20°C° 0 mm 0 mps 746 mmHg 99%
    06:00 +24°C° 0 mm 1 mps 747 mmHg 93%
    07:00 +25°C° 0 mm 1 mps 747 mmHg 86%
    08:00 +27°C° 0 mm 1 mps 748 mmHg 80%
    09:00 +28°C° 0.2 mm 1 mps 748 mmHg 76%
    10:00 +29°C° 0.2 mm 1 mps 747 mmHg 72%
    11:00 +30°C° 0.2 mm 1 mps 747 mmHg 68%
    12:00 +30°C° 1.2 mm 1 mps 746 mmHg 76%
    13:00 +29°C° 1.2 mm 1 mps 746 mmHg 83%
    14:00 +28°C° 1.2 mm 1 mps 745 mmHg 91%
    15:00 +28°C° 1 mm 1 mps 745 mmHg 93%
    16:00 +27°C° 1 mm 1 mps 745 mmHg 95%
    17:00 +26°C° 1 mm 1 mps 745 mmHg 96%
    18:00 +26°C° 1 mm 1 mps 746 mmHg 97%
    19:00 +25°C° 1 mm 1 mps 746 mmHg 98%
    20:00 +24°C° 1 mm 1 mps 747 mmHg 98%
    21:00 +24°C° 0.2 mm 1 mps 747 mmHg 99%
    22:00 +24°C° 0.2 mm 1 mps 747 mmHg 99%
    23:00 +24°C° 0.2 mm 1 mps 747 mmHg 99%
    Show more